sat.trackr.live / text

‹ back to catalog

STARLINK-36500

NORAD 67320 · 2026-002R

PAYLOAD ACTIVE UNKNOWN

§ Identity

Operator
Country
US
Launch date
2026-01-04
Launch site
AFETR
Launch vehicle
Mass (kg)
RCS (m²)

Purposes: comms

External: N2YO · Heavens-Above · Gunter

§ Orbital elements

Epoch: 2026-09-19T10:13:10.301088Z

Period
94.27 min
Inclination
42.9996°
Eccentricity
0.0000751
Mean motion
15.27588217 rev/d
Perigee alt
482.5 km
Apogee alt
483.5 km
Semi-major
6,861.2 km
B*
3.5282e-4
RAAN
311.5559°
Arg perigee
267.3703°
Mean anomaly
92.7062°
Rev number
4,076

§ Raw data

STARLINK-365001 67320U 26002R   26262.42581367  .00009462  00000+0  35282-3 0  99952 67320  42.9996 311.5559 0000751 267.3703  92.7062 15.27588217 40768

JSON: /api/v1/satellites/67320 · /tle

For live sub-satellite position, see the globe view (requires WebGL).

§ Visibility from observer

Set your observer location to see the next 7 days of passes ≥ 10°. The values pass through the URL so the page stays shareable.

No JS? Fill the form by hand. The geolocation button needs JavaScript.